• En España
  • Lista de países
  • Para 7 días
  • Temperatura del agua
  • Mapa Satelital
  • El tiempo en el mapa
  • Informadores
  • user-avatar
    Iniciar sesión

    Tiempo cada hora San Miguel de Tucumán

    Hoy, 20 Octubre, Sábado

    Tiempo Temperatura Precipitaciones Viento Presión Humedad
    00:00 +23°C° 0.1 mm 1 mps 721 mmHg 95%
    01:00 +23°C° 0.1 mm 1 mps 721 mmHg 94%
    02:00 +23°C° 0.1 mm 1 mps 721 mmHg 94%
    03:00 +23°C° 0.1 mm 1 mps 720 mmHg 94%
    04:00 +23°C° 0.1 mm 1 mps 720 mmHg 94%
    05:00 +23°C° 0.1 mm 1 mps 720 mmHg 94%
    06:00 +23°C° 0.1 mm 1 mps 720 mmHg 92%
    07:00 +24°C° 0.1 mm 2 mps 721 mmHg 89%
    08:00 +24°C° 0.1 mm 2 mps 721 mmHg 86%
    09:00 +26°C° 0.1 mm 2 mps 720 mmHg 82%
    10:00 +27°C° 0.1 mm 2 mps 720 mmHg 77%
    11:00 +28°C° 0.1 mm 3 mps 720 mmHg 73%
    12:00 +28°C° 0.3 mm 3 mps 719 mmHg 72%
    13:00 +29°C° 0.3 mm 3 mps 718 mmHg 70%
    14:00 +30°C° 0.3 mm 3 mps 717 mmHg 68%
    15:00 +29°C° 0.5 mm 2 mps 717 mmHg 71%
    16:00 +28°C° 0.5 mm 2 mps 716 mmHg 75%
    17:00 +27°C° 0.5 mm 2 mps 716 mmHg 79%
    18:00 +26°C° 0.8 mm 2 mps 717 mmHg 83%
    19:00 +25°C° 0.8 mm 1 mps 717 mmHg 87%
    20:00 +25°C° 0.8 mm 1 mps 718 mmHg 92%
    21:00 +24°C° 1.7 mm 1 mps 718 mmHg 92%
    22:00 +24°C° 1.7 mm 1 mps 718 mmHg 91%
    23:00 +24°C° 1.7 mm 1 mps 719 mmHg 91%

    Mañana, 21 Octubre, Domingo

    Tiempo Temperatura Precipitaciones Viento Presión Humedad
    00:00 +24°C° 0.8 mm 1 mps 718 mmHg 91%
    01:00 +24°C° 0.8 mm 1 mps 718 mmHg 91%
    02:00 +24°C° 0.8 mm 1 mps 718 mmHg 91%
    03:00 +23°C° 0 mm 1 mps 718 mmHg 91%
    04:00 +23°C° 0 mm 1 mps 718 mmHg 91%
    05:00 +23°C° 0 mm 1 mps 718 mmHg 92%
    06:00 +24°C° 0 mm 1 mps 718 mmHg 89%
    07:00 +24°C° 0 mm 1 mps 718 mmHg 86%
    08:00 +25°C° 0 mm 1 mps 719 mmHg 83%
    09:00 +26°C° 0 mm 1 mps 719 mmHg 78%
    10:00 +27°C° 0 mm 2 mps 719 mmHg 74%
    11:00 +28°C° 0 mm 2 mps 719 mmHg 70%
    12:00 +29°C° 0.1 mm 2 mps 718 mmHg 68%
    13:00 +30°C° 0.1 mm 2 mps 717 mmHg 66%
    14:00 +30°C° 0.1 mm 2 mps 716 mmHg 64%
    15:00 +30°C° 0.4 mm 1 mps 716 mmHg 68%
    16:00 +29°C° 0.4 mm 1 mps 716 mmHg 71%
    17:00 +29°C° 0.4 mm 1 mps 716 mmHg 75%
    18:00 +28°C° 2 mm 1 mps 716 mmHg 80%
    19:00 +27°C° 2 mm 1 mps 716 mmHg 84%
    20:00 +26°C° 2 mm 1 mps 717 mmHg 89%
    21:00 +25°C° 1.4 mm 1 mps 717 mmHg 90%
    22:00 +25°C° 1.4 mm 1 mps 717 mmHg 91%
    23:00 +24°C° 1.4 mm 1 mps 718 mmHg 92%

    Pasado mañana, 22 Octubre, Lunes

    Tiempo Temperatura Precipitaciones Viento Presión Humedad
    00:00 +24°C° 0.8 mm 1 mps 717 mmHg 93%
    01:00 +24°C° 0.8 mm 1 mps 717 mmHg 93%
    02:00 +24°C° 0.8 mm 1 mps 716 mmHg 93%
    03:00 +24°C° 0.4 mm 1 mps 716 mmHg 93%
    04:00 +24°C° 0.4 mm 1 mps 716 mmHg 93%
    05:00 +22°C° 0.4 mm 0 mps 716 mmHg 94%
    06:00 +24°C° 0.1 mm 1 mps 716 mmHg 91%
    07:00 +25°C° 0.1 mm 1 mps 717 mmHg 89%
    08:00 +26°C° 0.1 mm 1 mps 717 mmHg 87%
    09:00 +26°C° 0.1 mm 1 mps 717 mmHg 84%
    10:00 +27°C° 0.1 mm 2 mps 717 mmHg 82%
    11:00 +28°C° 0.1 mm 2 mps 717 mmHg 79%
    12:00 +28°C° 0.2 mm 2 mps 716 mmHg 79%
    13:00 +28°C° 0.2 mm 2 mps 715 mmHg 78%
    14:00 +29°C° 0.2 mm 2 mps 715 mmHg 78%
    15:00 +28°C° 1.1 mm 2 mps 715 mmHg 79%
    16:00 +28°C° 1.1 mm 1 mps 714 mmHg 80%
    17:00 +28°C° 1.1 mm 1 mps 714 mmHg 81%
    18:00 +27°C° 2.7 mm 1 mps 715 mmHg 85%
    19:00 +26°C° 2.7 mm 1 mps 716 mmHg 88%
    20:00 +25°C° 2.7 mm 1 mps 717 mmHg 92%
    21:00 +25°C° 1.8 mm 1 mps 717 mmHg 93%
    22:00 +24°C° 1.8 mm 1 mps 718 mmHg 93%
    23:00 +24°C° 1.8 mm 1 mps 719 mmHg 94%

    23 Octubre, Martes

    Tiempo Temperatura Precipitaciones Viento Presión Humedad
    00:00 +24°C° 1.8 mm 2 mps 718 mmHg 94%
    01:00 +24°C° 1.8 mm 2 mps 718 mmHg 94%
    02:00 +24°C° 1.8 mm 2 mps 718 mmHg 93%
    03:00 +23°C° 1.9 mm 2 mps 718 mmHg 93%
    04:00 +23°C° 1.9 mm 2 mps 719 mmHg 93%
    05:00 +23°C° 1.9 mm 2 mps 719 mmHg 93%
    06:00 +23°C° 1.8 mm 2 mps 719 mmHg 93%
    07:00 +23°C° 1.8 mm 2 mps 720 mmHg 92%
    08:00 +22°C° 1.8 mm 3 mps 721 mmHg 92%
    09:00 +22°C° 1.2 mm 3 mps 721 mmHg 92%
    10:00 +21°C° 1.2 mm 3 mps 720 mmHg 93%
    11:00 +21°C° 1.2 mm 3 mps 720 mmHg 93%
    12:00 +21°C° 0.5 mm 3 mps 720 mmHg 94%
    13:00 +20°C° 0.5 mm 3 mps 719 mmHg 94%
    14:00 +20°C° 0.5 mm 3 mps 719 mmHg 95%
    15:00 +20°C° 0.8 mm 3 mps 719 mmHg 95%
    16:00 +20°C° 0.8 mm 3 mps 718 mmHg 95%
    17:00 +20°C° 0.8 mm 3 mps 718 mmHg 95%
    18:00 +20°C° 0.3 mm 2 mps 719 mmHg 95%
    19:00 +19°C° 0.3 mm 2 mps 719 mmHg 95%
    20:00 +19°C° 0.3 mm 2 mps 720 mmHg 95%
    21:00 +19°C° 0.1 mm 2 mps 720 mmHg 95%
    22:00 +20°C° 0.1 mm 1 mps 720 mmHg 95%
    23:00 +20°C° 0.1 mm 1 mps 721 mmHg 95%

    24 Octubre, Miércoles

    Tiempo Temperatura Precipitaciones Viento Presión Humedad
    00:00 +20°C° 0.2 mm 1 mps 720 mmHg 95%
    01:00 +20°C° 0.2 mm 1 mps 720 mmHg 95%
    02:00 +20°C° 0.2 mm 1 mps 719 mmHg 95%
    03:00 +20°C° 0.3 mm 1 mps 719 mmHg 95%
    04:00 +20°C° 0.3 mm 1 mps 719 mmHg 94%
    05:00 +18°C° 0.3 mm 0 mps 719 mmHg 94%
    06:00 +21°C° 0.1 mm 1 mps 719 mmHg 92%
    07:00 +22°C° 0.1 mm 1 mps 719 mmHg 89%
    08:00 +23°C° 0.1 mm 1 mps 719 mmHg 87%
    09:00 +24°C° 0 mm 2 mps 719 mmHg 83%
    10:00 +25°C° 0 mm 2 mps 719 mmHg 78%
    11:00 +26°C° 0 mm 2 mps 718 mmHg 74%
    12:00 +27°C° 0.1 mm 2 mps 718 mmHg 73%
    13:00 +27°C° 0.1 mm 2 mps 717 mmHg 72%
    14:00 +28°C° 0.1 mm 2 mps 716 mmHg 71%
    15:00 +27°C° 0.2 mm 2 mps 716 mmHg 73%
    16:00 +27°C° 0.2 mm 2 mps 716 mmHg 76%
    17:00 +27°C° 0.2 mm 2 mps 715 mmHg 78%
    18:00 +26°C° 0.2 mm 1 mps 716 mmHg 82%
    19:00 +25°C° 0.2 mm 1 mps 716 mmHg 86%
    20:00 +24°C° 0.2 mm 1 mps 717 mmHg 90%
    21:00 +24°C° 0.1 mm 1 mps 717 mmHg 90%
    22:00 +24°C° 0.1 mm 1 mps 717 mmHg 90%
    23:00 +23°C° 0.1 mm 1 mps 717 mmHg 90%

    25 Octubre, Jueves

    Tiempo Temperatura Precipitaciones Viento Presión Humedad
    00:00 +23°C° 0 mm 1 mps 716 mmHg 90%
    01:00 +23°C° 0 mm 1 mps 716 mmHg 90%
    02:00 +23°C° 0 mm 1 mps 715 mmHg 89%
    03:00 +23°C° 0 mm 1 mps 715 mmHg 88%
    04:00 +22°C° 0 mm 1 mps 715 mmHg 86%
    05:00 +22°C° 0 mm 1 mps 715 mmHg 84%
    06:00 +24°C° 0 mm 1 mps 716 mmHg 81%
    07:00 +25°C° 0 mm 1 mps 716 mmHg 78%
    08:00 +26°C° 0 mm 1 mps 717 mmHg 75%
    09:00 +27°C° 0 mm 2 mps 717 mmHg 71%
    10:00 +28°C° 0 mm 2 mps 717 mmHg 67%
    11:00 +30°C° 0 mm 2 mps 717 mmHg 63%
    12:00 +31°C° 0 mm 2 mps 716 mmHg 61%
    13:00 +31°C° 0 mm 2 mps 716 mmHg 58%
    14:00 +32°C° 0 mm 2 mps 715 mmHg 56%
    15:00 +31°C° 0.1 mm 2 mps 715 mmHg 59%
    16:00 +31°C° 0.1 mm 2 mps 715 mmHg 62%
    17:00 +30°C° 0.1 mm 2 mps 715 mmHg 65%
    18:00 +29°C° 0.9 mm 2 mps 715 mmHg 70%
    19:00 +28°C° 0.9 mm 1 mps 716 mmHg 76%
    20:00 +26°C° 0.9 mm 1 mps 717 mmHg 81%
    21:00 +26°C° 3.7 mm 1 mps 717 mmHg 83%
    22:00 +25°C° 3.7 mm 1 mps 718 mmHg 85%
    23:00 +25°C° 3.7 mm 1 mps 718 mmHg 86%
    Mostrar más